User: anonymous   Login
Location: Unspecified
(0.0000°N, 0.0000°E)
Time: 18:41:26
(UTC+00:00)
Language:

NJUST-1 - Orbit

View from above orbital plane
View from above orbital plane
View from above satellite
View from above satellite

Ground track
Ground track

The orbit data is extracted from the following two-line orbital elements,

1 42722U 98067MB  19077.73567787  .00067899  00000-0  31663-3 0  9992
2 42722  51.6358  32.1734 0003613 150.1870 277.8511 15.82668897103805
Epoch (UTC): 18 March 2019 17:39:22
Eccentricity: 0.0003613
inclination: 51.6358°
perigee height: 320 km
apogee height: 325 km
right ascension of ascending node: 32.1734°
argument of perigee: 150.1870°
revolutions per day: 15.82668897
mean anomaly at epoch: 277.8511°
orbit number at epoch: 10380

The dashed part of the orbit path shows where the satellite is in the earth's shadow,  

DLR